Time,TemperatureF,DewpointF,PressureIn,WindDirection,WindDirectionDegrees,WindSpeedMPH,WindSpeedGustMPH,Humidity,HourlyPrecipIn,Conditions,Clouds,dailyrainin,SolarRadiationWatts/m^2,SoftwareType,DateUTC
2013-03-23 00:00:00,41.8,35.5,30.06,SW,219,0.0,0.0,78,0.00,,---,0.00,0.00,VWS V14.01,2013-03-23 04:00:00,
2013-03-23 00:01:00,41.7,35.4,30.05,SW,219,0.0,0.0,78,0.00,,---,0.00,0.00,VWS V14.01,2013-03-23 04:01:00,
2013-03-23 00:06:00,41.6,35.3,30.05,SW,219,0.0,0.0,78,0.00,,---,0.00,0.00,VWS V14.01,2013-03-23 04:06:00,
2013-03-23 00:12:00,41.4,35.1,30.06,SW,219,0.0,0.0,78,0.00,,---,0.00,0.00,VWS V14.01,2013-03-23 04:12:00,
2013-03-23 00:20:00,41.1,34.8,30.06,SW,219,0.0,0.0,78,0.00,,---,0.00,0.00,VWS V14.01,2013-03-23 04:20:00,
2013-03-23 00:25:00,40.9,34.9,30.05,SW,219,0.0,0.0,79,0.00,,---,0.00,0.00,VWS V14.01,2013-03-23 04:25:00,
2013-03-23 00:30:00,40.7,35.0,30.05,SW,219,0.0,0.0,80,0.00,,---,0.00,0.00,VWS V14.01,2013-03-23 04:30:00,
2013-03-23 00:35:00,40.6,35.5,30.05,SW,219,0.0,0.0,82,0.00,,---,0.00,0.00,VWS V14.01,2013-03-23 04:35:00,
2013-03-23 00:40:00,40.6,35.8,30.06,SW,219,0.0,0.0,83,0.00,,---,0.00,0.00,VWS V14.01,2013-03-23 04:40:00,
2013-03-23 00:45:00,40.5,35.8,30.06,SW,219,0.0,0.0,83,0.00,,---,0.00,0.00,VWS V14.01,2013-03-23 04:45:00,
2013-03-23 00:51:00,40.5,36.0,30.06,SW,219,0.0,0.0,84,0.00,,---,0.00,0.00,VWS V14.01,2013-03-23 04:51:00,
2013-03-23 00:56:00,40.5,36.0,30.06,SW,219,0.0,0.0,84,0.00,,---,0.00,0.00,VWS V14.01,2013-03-23 04:56:00,
2013-03-23 01:01:00,40.6,36.5,30.06,SW,219,0.0,0.0,85,0.00,,---,0.00,0.00,VWS V14.01,2013-03-23 05:01:00,
2013-03-23 01:06:00,40.6,36.5,30.06,SW,219,0.0,0.0,85,0.00,,---,0.00,0.00,VWS V14.01,2013-03-23 05:06:00,
2013-03-23 01:11:00,40.6,36.5,30.06,SW,219,0.0,0.0,85,0.00,,---,0.00,0.00,VWS V14.01,2013-03-23 05:11:00,
2013-03-23 01:17:00,40.6,36.5,30.06,SW,219,0.0,0.0,85,0.00,,---,0.00,0.00,VWS V14.01,2013-03-23 05:17:00,
2013-03-23 01:22:00,40.6,36.5,30.06,SW,219,0.0,0.0,85,0.00,,---,0.00,0.00,VWS V14.01,2013-03-23 05:22:00,
2013-03-23 01:27:00,40.7,36.5,30.05,SW,219,0.0,0.0,85,0.00,,---,0.00,0.00,VWS V14.01,2013-03-23 05:27:00,
2013-03-23 01:33:00,40.7,36.8,30.05,SW,219,0.0,0.0,86,0.00,,---,0.00,0.00,VWS V14.01,2013-03-23 05:33:00,
2013-03-23 01:38:00,40.8,37.2,30.05,SW,219,0.0,0.0,87,0.00,,---,0.00,0.00,VWS V14.01,2013-03-23 05:38:00,
2013-03-23 01:43:00,40.8,37.2,30.05,SW,219,0.0,0.0,87,0.00,,---,0.00,0.00,VWS V14.01,2013-03-23 05:43:00,
2013-03-23 01:48:00,40.7,36.8,30.05,SW,219,0.0,0.0,86,0.00,,---,0.00,0.00,VWS V14.01,2013-03-23 05:48:00,
2013-03-23 01:53:00,40.6,36.8,30.05,SW,219,0.0,0.0,86,0.00,,---,0.00,0.00,VWS V14.01,2013-03-23 05:53:00,
2013-03-23 01:58:00,40.6,36.8,30.05,SW,219,0.0,0.0,86,0.00,,---,0.00,0.00,VWS V14.01,2013-03-23 05:58:00,
2013-03-23 02:03:00,40.6,37.0,30.05,SW,219,0.0,0.0,87,0.00,,---,0.00,0.00,VWS V14.01,2013-03-23 06:03:00,
2013-03-23 02:09:00,40.5,36.9,30.05,SW,219,0.0,0.0,87,0.00,,---,0.00,0.00,VWS V14.01,2013-03-23 06:09:00,
2013-03-23 02:14:00,40.5,36.9,30.05,SW,219,0.0,0.0,87,0.00,,---,0.00,0.00,VWS V14.01,2013-03-23 06:14:00,
2013-03-23 02:19:00,40.4,36.8,30.05,SW,219,0.0,0.0,87,0.00,,---,0.00,0.00,VWS V14.01,2013-03-23 06:19:00,
2013-03-23 02:24:00,40.3,36.8,30.04,SW,219,0.0,0.0,87,0.00,,---,0.00,0.00,VWS V14.01,2013-03-23 06:24:00,
2013-03-23 02:29:00,40.2,36.7,30.04,SW,219,0.0,0.0,87,0.00,,---,0.00,0.00,VWS V14.01,2013-03-23 06:29:00,
2013-03-23 02:34:00,40.2,36.7,30.04,SW,219,0.0,0.0,87,0.00,,---,0.00,0.00,VWS V14.01,2013-03-23 06:34:00,
2013-03-23 02:39:00,40.2,36.7,30.04,SW,219,0.0,0.0,87,0.00,,---,0.00,0.00,VWS V14.01,2013-03-23 06:39:00,
2013-03-23 02:44:00,40.2,36.9,30.05,SW,219,1.0,1.0,88,0.00,,---,0.00,0.00,VWS V14.01,2013-03-23 06:44:00,
2013-03-23 02:50:00,40.2,36.9,30.04,SW,219,0.0,0.0,88,0.00,,---,0.00,0.00,VWS V14.01,2013-03-23 06:50:00,
2013-03-23 02:55:00,40.2,36.9,30.04,SW,219,0.0,0.0,88,0.00,,---,0.00,0.00,VWS V14.01,2013-03-23 06:55:00,
2013-03-23 03:00:00,40.2,36.9,30.04,SW,219,0.0,0.0,88,0.00,,---,0.00,0.00,VWS V14.01,2013-03-23 07:00:00,
2013-03-23 03:05:00,40.3,37.3,30.04,SW,219,0.0,0.0,89,0.00,,---,0.00,0.00,VWS V14.01,2013-03-23 07:05:00,
2013-03-23 03:10:00,40.4,37.1,30.03,SW,219,0.0,0.0,88,0.00,,---,0.00,0.00,VWS V14.01,2013-03-23 07:10:00,
2013-03-23 03:15:00,40.5,37.2,30.03,SW,219,0.0,0.0,88,0.00,,---,0.00,0.00,VWS V14.01,2013-03-23 07:15:00,
2013-03-23 03:21:00,40.7,37.7,30.03,SW,219,0.0,0.0,89,0.00,,---,0.00,0.00,VWS V14.01,2013-03-23 07:21:00,
2013-03-23 03:26:00,40.8,37.5,30.02,SW,219,0.0,0.0,88,0.00,,---,0.00,0.00,VWS V14.01,2013-03-23 07:26:00,
2013-03-23 03:31:00,40.9,37.6,30.01,SW,219,0.0,0.0,88,0.00,,---,0.00,0.00,VWS V14.01,2013-03-23 07:31:00,
2013-03-23 03:36:00,41.1,37.8,30.02,SW,219,0.0,0.0,88,0.00,,---,0.00,0.00,VWS V14.01,2013-03-23 07:36:00,
2013-03-23 03:41:00,41.3,38.0,30.02,SW,219,0.0,0.0,88,0.00,,---,0.00,0.00,VWS V14.01,2013-03-23 07:41:00,
2013-03-23 03:46:00,41.4,38.1,30.02,SW,219,0.0,0.0,88,0.00,,---,0.00,0.00,VWS V14.01,2013-03-23 07:46:00,
2013-03-23 03:51:00,41.5,38.2,30.02,SW,219,0.0,0.0,88,0.00,,---,0.00,0.00,VWS V14.01,2013-03-23 07:51:00,
2013-03-23 03:56:00,41.5,38.2,30.01,SW,219,0.0,0.0,88,0.00,,---,0.00,0.00,VWS V14.01,2013-03-23 07:56:00,
2013-03-23 04:01:00,41.7,38.7,30.01,SW,219,0.0,0.0,89,0.00,,---,0.00,0.00,VWS V14.01,2013-03-23 08:01:00,
2013-03-23 04:06:00,41.8,38.8,30.02,SW,219,0.0,0.0,89,0.00,,---,0.00,0.00,VWS V14.01,2013-03-23 08:06:00,
2013-03-23 04:11:00,41.9,38.9,30.02,SW,219,0.0,0.0,89,0.00,,---,0.00,0.00,VWS V14.01,2013-03-23 08:11:00,
2013-03-23 04:17:00,42.0,38.7,30.02,SW,219,0.0,0.0,88,0.00,,---,0.00,0.00,VWS V14.01,2013-03-23 08:17:00,
2013-03-23 04:22:00,42.1,38.8,30.02,SW,219,0.0,0.0,88,0.00,,---,0.00,0.00,VWS V14.01,2013-03-23 08:22:00,
2013-03-23 04:27:00,42.2,38.9,30.01,SW,219,0.0,0.0,88,0.00,,---,0.00,0.00,VWS V14.01,2013-03-23 08:27:00,
2013-03-23 04:32:00,42.3,39.0,30.01,SW,219,0.0,0.0,88,0.00,,---,0.00,0.00,VWS V14.01,2013-03-23 08:32:00,
2013-03-23 04:37:00,42.4,39.1,30.01,SW,219,0.0,0.0,88,0.00,,---,0.00,0.00,VWS V14.01,2013-03-23 08:37:00,
2013-03-23 04:42:00,42.5,39.2,30.02,SW,219,0.0,0.0,88,0.00,,---,0.00,0.00,VWS V14.01,2013-03-23 08:42:00,
2013-03-23 04:47:00,42.6,39.3,30.02,SW,219,0.0,0.0,88,0.00,,---,0.00,0.00,VWS V14.01,2013-03-23 08:47:00,
2013-03-23 04:53:00,42.7,39.4,30.01,SW,219,0.0,0.0,88,0.00,,---,0.00,0.00,VWS V14.01,2013-03-23 08:53:00,
2013-03-23 04:58:00,42.8,39.5,30.00,SW,219,0.0,0.0,88,0.00,,---,0.00,0.00,VWS V14.01,2013-03-23 08:58:00,
2013-03-23 05:03:00,42.8,39.5,30.00,SW,219,0.0,0.0,88,0.00,,---,0.00,0.00,VWS V14.01,2013-03-23 09:03:00,
2013-03-23 05:08:00,43.0,39.7,30.00,SW,219,0.0,0.0,88,0.00,,---,0.00,0.00,VWS V14.01,2013-03-23 09:08:00,
2013-03-23 05:13:00,43.1,40.1,29.99,SW,219,0.0,0.0,89,0.00,,---,0.00,0.00,VWS V14.01,2013-03-23 09:13:00,
2013-03-23 05:18:00,43.2,39.9,29.99,SW,219,0.0,0.0,88,0.00,,---,0.00,0.00,VWS V14.01,2013-03-23 09:18:00,
2013-03-23 05:23:00,43.2,39.9,29.98,SW,219,0.0,0.0,88,0.00,,---,0.00,0.00,VWS V14.01,2013-03-23 09:23:00,
2013-03-23 05:29:00,43.3,39.7,29.98,SW,219,0.0,2.0,87,0.00,,---,0.00,0.00,VWS V14.01,2013-03-23 09:29:00,
2013-03-23 05:34:00,43.4,39.8,29.99,SW,219,0.0,1.0,87,0.00,,---,0.00,0.00,VWS V14.01,2013-03-23 09:34:00,
2013-03-23 05:39:00,43.6,39.7,29.98,SW,219,0.0,0.0,86,0.00,,---,0.00,0.00,VWS V14.01,2013-03-23 09:39:00,
2013-03-23 05:45:00,43.8,40.2,29.98,SW,219,0.0,0.0,87,0.00,,---,0.00,0.00,VWS V14.01,2013-03-23 09:45:00,
2013-03-23 05:50:00,43.8,39.9,29.98,SW,219,0.0,0.0,86,0.00,,---,0.00,0.00,VWS V14.01,2013-03-23 09:50:00,
2013-03-23 05:55:00,44.0,40.1,29.98,SW,219,0.0,0.0,86,0.00,,---,0.00,0.00,VWS V14.01,2013-03-23 09:55:00,
2013-03-23 06:00:00,44.0,40.1,29.98,SW,219,0.0,0.0,86,0.00,,---,0.00,0.00,VWS V14.01,2013-03-23 10:00:00,
2013-03-23 06:05:00,44.1,40.2,29.98,SW,219,0.0,0.0,86,0.00,,---,0.00,0.00,VWS V14.01,2013-03-23 10:05:00,
2013-03-23 06:10:00,44.1,40.2,29.98,SW,219,0.0,0.0,86,0.00,,---,0.00,0.00,VWS V14.01,2013-03-23 10:10:00,
2013-03-23 06:16:00,44.2,40.3,29.99,SW,219,0.0,0.0,86,0.00,,---,0.00,0.00,VWS V14.01,2013-03-23 10:16:00,
2013-03-23 06:21:00,44.3,40.4,29.99,SW,219,0.0,0.0,86,0.00,,---,0.00,0.00,VWS V14.01,2013-03-23 10:21:00,
2013-03-23 06:26:00,44.4,40.5,29.99,SW,219,0.0,0.0,86,0.00,,---,0.00,0.00,VWS V14.01,2013-03-23 10:26:00,
2013-03-23 06:31:00,44.5,40.6,30.00,SW,219,0.0,0.0,86,0.00,,---,0.00,0.00,VWS V14.01,2013-03-23 10:31:00,
2013-03-23 06:37:00,44.6,40.7,30.00,SW,219,1.0,2.0,86,0.00,,---,0.00,0.00,VWS V14.01,2013-03-23 10:37:00,
2013-03-23 06:42:00,44.6,40.7,30.00,SW,219,0.0,0.0,86,0.00,,---,0.00,0.00,VWS V14.01,2013-03-23 10:42:00,
2013-03-23 06:47:00,44.6,40.7,30.00,SW,219,0.0,0.0,86,0.00,,---,0.00,0.00,VWS V14.01,2013-03-23 10:47:00,
2013-03-23 06:52:00,44.6,40.7,30.00,SW,219,0.0,0.0,86,0.00,,---,0.00,0.00,VWS V14.01,2013-03-23 10:52:00,
2013-03-23 06:57:00,44.6,40.7,30.00,SW,219,0.0,0.0,86,0.00,,---,0.00,0.00,VWS V14.01,2013-03-23 10:57:00,
2013-03-23 07:02:00,44.7,40.8,30.00,SW,219,0.0,0.0,86,0.00,,---,0.00,0.00,VWS V14.01,2013-03-23 11:02:00,
2013-03-23 07:07:00,44.7,41.1,30.00,SW,219,0.0,0.0,87,0.00,,---,0.00,0.00,VWS V14.01,2013-03-23 11:07:00,
2013-03-23 07:13:00,44.7,41.1,30.00,SW,219,0.0,0.0,87,0.00,,---,0.00,0.00,VWS V14.01,2013-03-23 11:13:00,
2013-03-23 07:18:00,44.7,41.1,30.00,SW,219,0.0,0.0,87,0.00,,---,0.00,0.00,VWS V14.01,2013-03-23 11:18:00,
2013-03-23 07:23:00,44.8,41.2,30.00,SW,219,0.0,0.0,87,0.00,,---,0.00,0.00,VWS V14.01,2013-03-23 11:23:00,
2013-03-23 07:28:00,44.7,41.4,30.00,SW,219,0.0,0.0,88,0.00,,---,0.00,0.00,VWS V14.01,2013-03-23 11:28:00,
2013-03-23 07:33:00,44.7,41.4,30.00,SW,219,0.0,0.0,88,0.00,,---,0.00,0.00,VWS V14.01,2013-03-23 11:33:00,
2013-03-23 07:38:00,44.8,41.5,30.01,SW,219,0.0,0.0,88,0.00,,---,0.00,0.00,VWS V14.01,2013-03-23 11:38:00,
2013-03-23 07:43:00,44.7,41.4,30.01,SW,219,1.0,1.0,88,0.00,,---,0.00,0.00,VWS V14.01,2013-03-23 11:43:00,
2013-03-23 07:48:00,44.7,41.7,30.01,SW,219,0.0,0.0,89,0.00,,---,0.00,5.00,VWS V14.01,2013-03-23 11:48:00,
2013-03-23 07:53:00,44.6,41.6,30.01,SW,219,0.0,1.0,89,0.00,,---,0.00,7.00,VWS V14.01,2013-03-23 11:53:00,
2013-03-23 07:59:00,44.6,41.6,30.02,SW,219,0.0,0.0,89,0.00,,---,0.00,11.00,VWS V14.01,2013-03-23 11:59:00,
2013-03-23 08:04:00,44.5,41.5,30.01,SW,219,0.0,0.0,89,0.00,,---,0.00,12.00,VWS V14.01,2013-03-23 12:04:00,
2013-03-23 08:09:00,44.4,41.4,30.01,SW,219,0.0,0.0,89,0.00,,---,0.00,16.00,VWS V14.01,2013-03-23 12:09:00,
2013-03-23 08:15:00,44.4,41.4,30.01,SW,219,0.0,0.0,89,0.00,,---,0.00,18.00,VWS V14.01,2013-03-23 12:15:00,
2013-03-23 08:20:00,44.4,41.1,30.00,SW,219,0.0,1.0,88,0.00,,---,0.00,26.00,VWS V14.01,2013-03-23 12:20:00,
2013-03-23 08:25:00,44.4,40.8,30.00,SW,219,0.0,2.0,87,0.00,,---,0.00,32.00,VWS V14.01,2013-03-23 12:25:00,
2013-03-23 08:30:00,44.4,40.2,30.01,SW,219,0.0,1.0,85,0.00,,---,0.00,25.00,VWS V14.01,2013-03-23 12:30:00,
2013-03-23 08:35:00,44.5,40.0,30.02,SW,219,0.0,0.0,84,0.00,,---,0.00,23.00,VWS V14.01,2013-03-23 12:35:00,
2013-03-23 08:40:00,44.7,40.5,30.02,SW,219,1.0,2.0,85,0.00,,---,0.00,21.00,VWS V14.01,2013-03-23 12:40:00,
2013-03-23 08:45:00,44.9,40.7,30.02,SW,219,0.0,2.0,85,0.00,,---,0.00,18.00,VWS V14.01,2013-03-23 12:45:00,
2013-03-23 08:50:00,45.0,40.8,30.02,SW,219,0.0,0.0,85,0.00,,---,0.00,14.00,VWS V14.01,2013-03-23 12:50:00,
2013-03-23 08:55:00,45.1,41.2,30.02,SW,219,0.0,3.0,86,0.00,,---,0.00,12.00,VWS V14.01,2013-03-23 12:55:00,
2013-03-23 09:00:00,45.2,41.3,30.02,SW,219,0.0,0.0,86,0.00,,---,0.00,21.00,VWS V14.01,2013-03-23 13:00:00,
2013-03-23 09:05:00,45.1,40.9,30.02,SW,219,0.0,1.0,85,0.00,,---,0.00,12.00,VWS V14.01,2013-03-23 13:05:00,
2013-03-23 09:11:00,45.2,41.0,30.03,SW,219,0.0,0.0,85,0.00,,---,0.00,16.00,VWS V14.01,2013-03-23 13:11:00,
2013-03-23 09:16:00,45.1,40.6,30.03,SW,219,2.0,2.0,84,0.00,,---,0.00,19.00,VWS V14.01,2013-03-23 13:16:00,
2013-03-23 09:21:00,45.2,40.7,30.03,SW,219,0.0,3.0,84,0.00,,---,0.00,30.00,VWS V14.01,2013-03-23 13:21:00,
2013-03-23 09:26:00,45.2,41.0,30.03,SW,219,0.0,1.0,85,0.00,,---,0.00,32.00,VWS V14.01,2013-03-23 13:26:00,
2013-03-23 09:31:00,45.3,41.1,30.03,SW,219,1.0,2.0,85,0.00,,---,0.00,47.00,VWS V14.01,2013-03-23 13:31:00,
2013-03-23 09:36:00,45.3,41.4,30.03,SW,219,1.0,1.0,86,0.00,,---,0.00,37.00,VWS V14.01,2013-03-23 13:36:00,
2013-03-23 09:42:00,45.3,41.7,30.04,SW,229,0.0,2.0,87,0.00,,---,0.00,28.00,VWS V14.01,2013-03-23 13:42:00,
2013-03-23 09:47:00,45.2,41.6,30.03,NNW,342,0.0,1.0,87,0.00,,---,0.00,53.00,VWS V14.01,2013-03-23 13:47:00,
2013-03-23 09:52:00,45.2,41.3,30.03,North,350,2.0,2.0,86,0.00,,---,0.00,62.00,VWS V14.01,2013-03-23 13:52:00,
2013-03-23 09:57:00,45.1,41.2,30.04,North,9,3.0,6.0,86,0.00,,---,0.00,33.00,VWS V14.01,2013-03-23 13:57:00,
2013-03-23 10:02:00,45.1,41.2,30.05,North,5,6.0,7.0,86,0.00,,---,0.00,26.00,VWS V14.01,2013-03-23 14:02:00,
2013-03-23 10:07:00,45.0,41.4,30.05,North,9,2.0,3.0,87,0.00,,---,0.00,23.00,VWS V14.01,2013-03-23 14:07:00,
2013-03-23 10:12:00,45.0,41.4,30.05,North,9,2.0,5.0,87,0.00,,---,0.00,19.00,VWS V14.01,2013-03-23 14:12:00,
2013-03-23 10:17:00,45.0,41.7,30.06,North,9,3.0,4.0,88,0.00,,---,0.00,21.00,VWS V14.01,2013-03-23 14:17:00,
2013-03-23 10:23:00,44.9,41.6,30.06,North,11,0.0,3.0,88,0.01,,---,0.01,23.00,VWS V14.01,2013-03-23 14:23:00,
2013-03-23 10:28:00,44.9,41.9,30.06,North,11,0.0,0.0,89,0.01,,---,0.01,21.00,VWS V14.01,2013-03-23 14:28:00,
2013-03-23 10:33:00,44.9,42.2,30.06,North,11,0.0,3.0,90,0.01,,---,0.01,30.00,VWS V14.01,2013-03-23 14:33:00,
2013-03-23 10:38:00,44.9,42.2,30.06,North,11,3.0,4.0,90,0.01,,---,0.01,32.00,VWS V14.01,2013-03-23 14:38:00,
2013-03-23 10:43:00,44.9,42.2,30.06,North,11,2.0,3.0,90,0.01,,---,0.01,30.00,VWS V14.01,2013-03-23 14:43:00,
2013-03-23 10:48:00,45.0,42.5,30.06,North,11,2.0,5.0,91,0.01,,---,0.01,19.00,VWS V14.01,2013-03-23 14:48:00,
2013-03-23 10:53:00,45.0,42.5,30.06,North,11,0.0,0.0,91,0.01,,---,0.01,21.00,VWS V14.01,2013-03-23 14:53:00,
2013-03-23 10:58:00,45.0,42.5,30.05,North,11,0.0,0.0,91,0.02,,---,0.02,19.00,VWS V14.01,2013-03-23 14:58:00,
2013-03-23 11:03:00,45.0,42.8,30.05,NNE,13,0.0,3.0,92,0.02,,---,0.02,25.00,VWS V14.01,2013-03-23 15:03:00,
2013-03-23 11:08:00,45.1,42.9,30.05,NNE,13,0.0,2.0,92,0.02,,---,0.02,21.00,VWS V14.01,2013-03-23 15:08:00,
2013-03-23 11:14:00,45.1,42.9,30.04,NNE,13,0.0,0.0,92,0.02,,---,0.02,18.00,VWS V14.01,2013-03-23 15:14:00,
2013-03-23 11:19:00,45.2,43.0,30.05,NNE,13,0.0,1.0,92,0.02,,---,0.02,18.00,VWS V14.01,2013-03-23 15:19:00,
2013-03-23 11:24:00,45.2,43.0,30.04,NNE,13,0.0,0.0,92,0.04,,---,0.04,23.00,VWS V14.01,2013-03-23 15:24:00,
2013-03-23 11:29:00,45.3,43.1,30.05,NNE,21,0.0,4.0,92,0.06,,---,0.07,23.00,VWS V14.01,2013-03-23 15:29:00,
2013-03-23 11:34:00,45.3,43.1,30.05,NNE,21,0.0,0.0,92,0.11,,---,0.12,46.00,VWS V14.01,2013-03-23 15:34:00,
2013-03-23 11:39:00,45.3,43.4,30.05,NNE,21,0.0,0.0,93,0.13,,---,0.14,67.00,VWS V14.01,2013-03-23 15:39:00,
2013-03-23 11:45:00,45.3,43.1,30.05,NNE,21,0.0,0.0,92,0.14,,---,0.15,83.00,VWS V14.01,2013-03-23 15:45:00,
2013-03-23 11:50:00,45.3,43.4,30.06,NNE,21,0.0,0.0,93,0.15,,---,0.16,62.00,VWS V14.01,2013-03-23 15:50:00,
2013-03-23 11:55:00,45.4,43.5,30.06,NNE,21,2.0,2.0,93,0.15,,---,0.16,69.00,VWS V14.01,2013-03-23 15:55:00,
2013-03-23 12:00:00,45.5,43.6,30.05,NNE,21,0.0,0.0,93,0.15,,---,0.17,77.00,VWS V14.01,2013-03-23 16:00:00,
2013-03-23 12:05:00,45.6,43.7,30.06,NNE,21,0.0,2.0,93,0.15,,---,0.17,74.00,VWS V14.01,2013-03-23 16:05:00,
2013-03-23 12:10:00,45.7,43.8,30.05,NNE,21,0.0,0.0,93,0.16,,---,0.18,123.00,VWS V14.01,2013-03-23 16:10:00,
2013-03-23 12:15:00,45.8,43.9,30.05,NNE,21,0.0,1.0,93,0.16,,---,0.18,91.00,VWS V14.01,2013-03-23 16:15:00,
2013-03-23 12:20:00,46.0,44.1,30.05,NNE,21,1.0,2.0,93,0.16,,---,0.18,98.00,VWS V14.01,2013-03-23 16:20:00,
2013-03-23 12:25:00,46.1,44.2,30.04,NNE,21,0.0,2.0,93,0.15,,---,0.18,109.00,VWS V14.01,2013-03-23 16:25:00,
2013-03-23 12:31:00,46.4,44.8,30.03,NE,36,1.0,2.0,94,0.12,,---,0.18,95.00,VWS V14.01,2013-03-23 16:31:00,
2013-03-23 12:36:00,46.5,44.9,30.04,NNE,22,0.0,0.0,94,0.11,,---,0.19,83.00,VWS V14.01,2013-03-23 16:36:00,
2013-03-23 12:41:00,46.6,45.0,30.04,NNE,23,0.0,2.0,94,0.06,,---,0.19,72.00,VWS V14.01,2013-03-23 16:41:00,
2013-03-23 12:46:00,46.7,45.1,30.04,NNE,23,0.0,1.0,94,0.05,,---,0.20,56.00,VWS V14.01,2013-03-23 16:46:00,
2013-03-23 12:52:00,46.8,45.2,30.04,NNE,23,1.0,2.0,94,0.04,,---,0.20,44.00,VWS V14.01,2013-03-23 16:52:00,
2013-03-23 12:57:00,46.7,45.1,30.04,NNE,23,0.0,0.0,94,0.04,,---,0.20,46.00,VWS V14.01,2013-03-23 16:57:00,
2013-03-23 13:02:00,46.7,45.1,30.04,NNE,23,0.0,2.0,94,0.04,,---,0.21,39.00,VWS V14.01,2013-03-23 17:02:00,
2013-03-23 13:06:00,46.7,45.1,30.04,NE,46,1.0,2.0,94,0.05,,---,0.22,39.00,VWS V14.01,2013-03-23 17:06:00,
2013-03-23 13:12:00,46.7,45.1,30.04,NE,46,0.0,0.0,94,0.05,,---,0.23,39.00,VWS V14.01,2013-03-23 17:12:00,
2013-03-23 13:17:00,46.7,45.1,30.03,NE,56,5.0,5.0,94,0.06,,---,0.24,49.00,VWS V14.01,2013-03-23 17:17:00,
2013-03-23 13:22:00,46.7,45.1,30.00,SE,133,8.0,9.0,94,0.08,,---,0.26,77.00,VWS V14.01,2013-03-23 17:22:00,
2013-03-23 13:27:00,46.6,45.0,29.95,SE,146,12.0,14.0,94,0.09,,---,0.27,128.00,VWS V14.01,2013-03-23 17:27:00,
2013-03-23 13:32:00,46.6,45.0,29.92,East,84,4.0,9.0,94,0.10,,---,0.28,193.00,VWS V14.01,2013-03-23 17:32:00,
2013-03-23 13:37:00,46.6,45.0,29.95,East,89,2.0,6.0,94,0.09,,---,0.28,195.00,VWS V14.01,2013-03-23 17:37:00,
2013-03-23 13:43:00,46.9,45.3,29.93,SE,124,5.0,7.0,94,0.09,,---,0.28,258.00,VWS V14.01,2013-03-23 17:43:00,
2013-03-23 13:48:00,47.3,45.7,29.92,ESE,117,6.0,8.0,94,0.08,,---,0.28,316.00,VWS V14.01,2013-03-23 17:48:00,
2013-03-23 13:53:00,47.7,46.3,29.92,SSE,156,4.0,11.0,95,0.08,,---,0.28,308.00,VWS V14.01,2013-03-23 17:53:00,
2013-03-23 13:58:00,48.1,46.7,29.93,ESE,107,0.0,8.0,95,0.08,,---,0.28,267.00,VWS V14.01,2013-03-23 17:58:00,
2013-03-23 14:03:00,49.1,47.7,29.93,South,185,0.0,5.0,95,0.07,,---,0.28,345.00,VWS V14.01,2013-03-23 18:03:00,
2013-03-23 14:08:00,49.7,48.3,29.93,SE,136,7.0,8.0,95,0.06,,---,0.28,290.00,VWS V14.01,2013-03-23 18:08:00,
2013-03-23 14:13:00,49.7,48.3,29.93,SE,144,5.0,5.0,95,0.05,,---,0.28,322.00,VWS V14.01,2013-03-23 18:13:00,
2013-03-23 14:18:00,49.8,48.4,29.93,SE,140,5.0,11.0,95,0.04,,---,0.28,346.00,VWS V14.01,2013-03-23 18:18:00,
2013-03-23 14:23:00,49.8,48.2,29.94,ESE,118,1.0,7.0,94,0.02,,---,0.28,424.00,VWS V14.01,2013-03-23 18:23:00,
2013-03-23 14:29:00,50.0,48.6,29.95,East,89,3.0,5.0,95,0.01,,---,0.28,287.00,VWS V14.01,2013-03-23 18:29:00,
2013-03-23 14:34:00,50.0,48.3,29.95,East,80,3.0,5.0,94,0.00,,---,0.28,211.00,VWS V14.01,2013-03-23 18:34:00,
2013-03-23 14:39:00,50.0,48.3,29.95,ENE,66,2.0,3.0,94,0.00,,---,0.28,207.00,VWS V14.01,2013-03-23 18:39:00,
2013-03-23 14:44:00,50.1,48.4,29.95,NNE,27,0.0,3.0,94,0.00,,---,0.28,199.00,VWS V14.01,2013-03-23 18:44:00,
2013-03-23 14:49:00,50.1,48.4,29.95,NNE,32,0.0,4.0,94,0.00,,---,0.28,207.00,VWS V14.01,2013-03-23 18:49:00,
2013-03-23 14:54:00,50.1,48.4,29.95,NNE,31,5.0,5.0,94,0.00,,---,0.28,236.00,VWS V14.01,2013-03-23 18:54:00,
2013-03-23 14:59:00,50.2,48.5,29.95,NNE,15,3.0,6.0,94,0.00,,---,0.28,139.00,VWS V14.01,2013-03-23 18:59:00,
2013-03-23 15:04:00,50.3,48.6,29.95,NNE,19,3.0,6.0,94,0.00,,---,0.28,239.00,VWS V14.01,2013-03-23 19:04:00,
2013-03-23 15:09:00,50.3,48.6,29.95,NNE,19,1.0,1.0,94,0.00,,---,0.28,188.00,VWS V14.01,2013-03-23 19:09:00,
2013-03-23 15:15:00,50.5,48.8,29.95,North,5,1.0,5.0,94,0.00,,---,0.28,111.00,VWS V14.01,2013-03-23 19:15:00,
2013-03-23 15:20:00,50.5,48.8,29.95,NNE,18,2.0,5.0,94,0.00,,---,0.28,160.00,VWS V14.01,2013-03-23 19:20:00,
2013-03-23 15:25:00,50.5,48.6,29.94,NNE,12,6.0,6.0,93,0.00,,---,0.28,185.00,VWS V14.01,2013-03-23 19:25:00,
2013-03-23 15:30:00,50.5,48.6,29.94,NNE,30,5.0,6.0,93,0.00,,---,0.28,197.00,VWS V14.01,2013-03-23 19:30:00,
2013-03-23 15:35:00,50.4,48.5,29.94,NE,34,0.0,4.0,93,0.00,,---,0.28,195.00,VWS V14.01,2013-03-23 19:35:00,
2013-03-23 15:40:00,50.5,48.6,29.94,North,5,3.0,8.0,93,0.00,,---,0.28,190.00,VWS V14.01,2013-03-23 19:40:00,
2013-03-23 15:45:00,50.5,48.6,29.94,North,9,5.0,7.0,93,0.00,,---,0.28,137.00,VWS V14.01,2013-03-23 19:45:00,
2013-03-23 15:50:00,50.4,48.5,29.93,NE,38,1.0,9.0,93,0.00,,---,0.28,111.00,VWS V14.01,2013-03-23 19:50:00,
2013-03-23 15:55:00,50.2,48.0,29.93,NNE,15,2.0,8.0,92,0.00,,---,0.28,139.00,VWS V14.01,2013-03-23 19:55:00,
2013-03-23 16:00:00,50.0,47.8,29.93,NNE,33,2.0,7.0,92,0.00,,---,0.28,139.00,VWS V14.01,2013-03-23 20:00:00,
2013-03-23 16:05:00,49.9,47.7,29.93,NNE,13,6.0,8.0,92,0.00,,---,0.28,113.00,VWS V14.01,2013-03-23 20:05:00,
2013-03-23 16:11:00,49.6,47.4,29.92,NE,46,3.0,10.0,92,0.00,,---,0.28,120.00,VWS V14.01,2013-03-23 20:11:00,
2013-03-23 16:16:00,49.2,47.0,29.92,North,11,3.0,11.0,92,0.00,,---,0.28,128.00,VWS V14.01,2013-03-23 20:16:00,
2013-03-23 16:21:00,49.0,46.8,29.92,ENE,63,5.0,6.0,92,0.00,,---,0.28,128.00,VWS V14.01,2013-03-23 20:21:00,
2013-03-23 16:26:00,48.6,46.4,29.92,NNW,342,4.0,8.0,92,0.00,,---,0.28,113.00,VWS V14.01,2013-03-23 20:26:00,
2013-03-23 16:31:00,48.5,46.3,29.92,North,355,8.0,10.0,92,0.00,,---,0.28,121.00,VWS V14.01,2013-03-23 20:31:00,
2013-03-23 16:36:00,48.3,46.1,29.91,NE,51,2.0,8.0,92,0.00,,---,0.28,91.00,VWS V14.01,2013-03-23 20:36:00,
2013-03-23 16:41:00,48.3,46.4,29.91,NE,49,1.0,3.0,93,0.00,,---,0.28,125.00,VWS V14.01,2013-03-23 20:41:00,
2013-03-23 16:46:00,48.2,46.3,29.91,NE,39,1.0,7.0,93,0.00,,---,0.28,105.00,VWS V14.01,2013-03-23 20:46:00,
2013-03-23 16:51:00,48.2,46.3,29.91,ENE,72,4.0,4.0,93,0.00,,---,0.28,116.00,VWS V14.01,2013-03-23 20:51:00,
2013-03-23 16:57:00,48.1,46.2,29.91,NE,52,4.0,6.0,93,0.00,,---,0.28,118.00,VWS V14.01,2013-03-23 20:57:00,
2013-03-23 17:02:00,48.0,46.1,29.91,NNE,24,1.0,5.0,93,0.00,,---,0.28,105.00,VWS V14.01,2013-03-23 21:02:00,
2013-03-23 17:07:00,47.9,46.0,29.91,NNE,29,3.0,4.0,93,0.00,,---,0.28,134.00,VWS V14.01,2013-03-23 21:07:00,
2013-03-23 17:12:00,47.9,46.0,29.92,NNE,27,1.0,3.0,93,0.00,,---,0.28,121.00,VWS V14.01,2013-03-23 21:12:00,
2013-03-23 17:18:00,48.0,46.1,29.92,NE,36,2.0,3.0,93,0.00,,---,0.28,111.00,VWS V14.01,2013-03-23 21:18:00,
2013-03-23 17:23:00,48.1,46.2,29.91,NE,40,3.0,3.0,93,0.00,,---,0.28,120.00,VWS V14.01,2013-03-23 21:23:00,
2013-03-23 17:28:00,48.2,46.3,29.91,ENE,63,0.0,6.0,93,0.00,,---,0.28,127.00,VWS V14.01,2013-03-23 21:28:00,
2013-03-23 17:33:00,48.3,46.4,29.90,NE,52,3.0,4.0,93,0.00,,---,0.28,125.00,VWS V14.01,2013-03-23 21:33:00,
2013-03-23 17:38:00,48.4,46.5,29.91,ENE,59,0.0,0.0,93,0.00,,---,0.28,107.00,VWS V14.01,2013-03-23 21:38:00,
2013-03-23 17:43:00,48.5,46.6,29.92,ENE,60,0.0,0.0,93,0.00,,---,0.28,98.00,VWS V14.01,2013-03-23 21:43:00,
2013-03-23 17:48:00,48.6,46.7,29.91,ENE,65,2.0,3.0,93,0.00,,---,0.28,90.00,VWS V14.01,2013-03-23 21:48:00,
2013-03-23 17:53:00,48.7,46.8,29.91,ENE,65,0.0,3.0,93,0.00,,---,0.28,88.00,VWS V14.01,2013-03-23 21:53:00,
2013-03-23 17:58:00,48.8,46.9,29.91,ENE,63,3.0,5.0,93,0.00,,---,0.28,76.00,VWS V14.01,2013-03-23 21:58:00,
2013-03-23 18:03:00,48.9,46.7,29.92,ENE,62,0.0,3.0,92,0.00,,---,0.28,79.00,VWS V14.01,2013-03-23 22:03:00,
2013-03-23 18:09:00,49.0,46.8,29.92,NNE,21,0.0,1.0,92,0.00,,---,0.28,63.00,VWS V14.01,2013-03-23 22:09:00,
2013-03-23 18:14:00,49.1,46.9,29.92,NNE,22,0.0,0.0,92,0.00,,---,0.28,35.00,VWS V14.01,2013-03-23 22:14:00,
2013-03-23 18:19:00,49.2,47.0,29.93,NNE,22,0.0,2.0,92,0.00,,---,0.28,54.00,VWS V14.01,2013-03-23 22:19:00,
2013-03-23 18:24:00,49.3,47.1,29.93,NNE,22,0.0,0.0,92,0.00,,---,0.28,30.00,VWS V14.01,2013-03-23 22:24:00,
2013-03-23 18:29:00,49.4,47.2,29.92,NNE,23,2.0,3.0,92,0.00,,---,0.28,26.00,VWS V14.01,2013-03-23 22:29:00,
2013-03-23 18:34:00,49.4,47.2,29.92,NNE,23,0.0,2.0,92,0.00,,---,0.28,39.00,VWS V14.01,2013-03-23 22:34:00,
2013-03-23 18:39:00,49.5,47.3,29.92,East,92,1.0,5.0,92,0.00,,---,0.28,65.00,VWS V14.01,2013-03-23 22:39:00,
2013-03-23 18:44:00,49.6,47.4,29.93,East,92,0.0,4.0,92,0.00,,---,0.28,60.00,VWS V14.01,2013-03-23 22:44:00,
2013-03-23 18:49:00,49.7,47.5,29.93,East,92,0.0,2.0,92,0.00,,---,0.28,21.00,VWS V14.01,2013-03-23 22:49:00,
2013-03-23 18:54:00,49.7,47.5,29.93,East,92,0.0,0.0,92,0.00,,---,0.28,26.00,VWS V14.01,2013-03-23 22:54:00,
2013-03-23 19:00:00,49.7,47.5,29.93,East,92,0.0,4.0,92,0.00,,---,0.28,18.00,VWS V14.01,2013-03-23 23:00:00,
2013-03-23 19:05:00,49.8,47.6,29.94,East,92,0.0,0.0,92,0.00,,---,0.28,12.00,VWS V14.01,2013-03-23 23:05:00,
2013-03-23 19:10:00,49.8,47.6,29.95,East,92,0.0,0.0,92,0.00,,---,0.28,12.00,VWS V14.01,2013-03-23 23:10:00,
2013-03-23 19:15:00,49.8,47.6,29.95,East,92,0.0,0.0,92,0.00,,---,0.28,18.00,VWS V14.01,2013-03-23 23:15:00,
2013-03-23 19:20:00,49.9,47.7,29.95,East,92,0.0,1.0,92,0.00,,---,0.28,16.00,VWS V14.01,2013-03-23 23:20:00,
2013-03-23 19:25:00,49.9,47.7,29.95,East,92,2.0,2.0,92,0.00,,---,0.28,9.00,VWS V14.01,2013-03-23 23:25:00,
2013-03-23 19:30:00,49.9,47.7,29.94,East,92,0.0,0.0,92,0.00,,---,0.28,7.00,VWS V14.01,2013-03-23 23:30:00,
2013-03-23 19:35:00,49.9,47.7,29.95,East,95,0.0,5.0,92,0.00,,---,0.28,0.00,VWS V14.01,2013-03-23 23:35:00,
2013-03-23 19:41:00,49.9,47.7,29.94,East,95,0.0,2.0,92,0.00,,---,0.28,0.00,VWS V14.01,2013-03-23 23:41:00,
2013-03-23 19:46:00,49.9,47.7,29.95,East,98,0.0,5.0,92,0.00,,---,0.28,0.00,VWS V14.01,2013-03-23 23:46:00,
2013-03-23 19:51:00,49.9,47.7,29.96,East,98,0.0,0.0,92,0.00,,---,0.28,0.00,VWS V14.01,2013-03-23 23:51:00,
2013-03-23 19:56:00,49.9,47.7,29.96,East,98,0.0,0.0,92,0.00,,---,0.28,0.00,VWS V14.01,2013-03-23 23:56:00,
2013-03-23 20:02:00,49.9,47.7,29.96,East,98,0.0,0.0,92,0.00,,---,0.28,0.00,VWS V14.01,2013-03-24 00:02:00,
2013-03-23 20:07:00,49.8,47.6,29.96,East,98,0.0,2.0,92,0.00,,---,0.28,0.00,VWS V14.01,2013-03-24 00:07:00,
2013-03-23 20:12:00,49.8,47.6,29.96,East,98,2.0,4.0,92,0.00,,---,0.28,0.00,VWS V14.01,2013-03-24 00:12:00,
2013-03-23 20:17:00,49.7,47.5,29.97,East,98,0.0,0.0,92,0.00,,---,0.28,0.00,VWS V14.01,2013-03-24 00:17:00,
2013-03-23 20:22:00,49.7,47.5,29.96,East,98,0.0,0.0,92,0.00,,---,0.28,0.00,VWS V14.01,2013-03-24 00:22:00,
2013-03-23 20:28:00,49.7,47.8,29.96,East,98,0.0,0.0,93,0.00,,---,0.28,0.00,VWS V14.01,2013-03-24 00:28:00,
2013-03-23 20:33:00,49.7,47.5,29.96,East,98,0.0,1.0,92,0.00,,---,0.28,0.00,VWS V14.01,2013-03-24 00:33:00,
2013-03-23 20:38:00,49.7,47.5,29.96,East,98,0.0,0.0,92,0.00,,---,0.28,0.00,VWS V14.01,2013-03-24 00:38:00,
2013-03-23 20:43:00,49.7,47.8,29.97,East,98,0.0,0.0,93,0.00,,---,0.28,0.00,VWS V14.01,2013-03-24 00:43:00,
2013-03-23 20:48:00,49.7,47.8,29.96,East,98,0.0,0.0,93,0.00,,---,0.28,0.00,VWS V14.01,2013-03-24 00:48:00,
2013-03-23 20:53:00,49.7,47.8,29.95,East,98,1.0,2.0,93,0.00,,---,0.28,0.00,VWS V14.01,2013-03-24 00:53:00,
2013-03-23 20:58:00,49.6,47.7,29.95,East,98,0.0,0.0,93,0.00,,---,0.28,0.00,VWS V14.01,2013-03-24 00:58:00,
2013-03-23 21:03:00,49.6,47.7,29.94,East,98,0.0,0.0,93,0.00,,---,0.28,0.00,VWS V14.01,2013-03-24 01:03:00,
2013-03-23 21:09:00,49.6,47.7,29.95,East,98,0.0,4.0,93,0.00,,---,0.28,0.00,VWS V14.01,2013-03-24 01:09:00,
2013-03-23 21:14:00,49.5,47.6,29.93,East,92,1.0,4.0,93,0.00,,---,0.28,0.00,VWS V14.01,2013-03-24 01:14:00,
2013-03-23 21:19:00,49.5,47.6,29.94,East,91,0.0,0.0,93,0.00,,---,0.28,0.00,VWS V14.01,2013-03-24 01:19:00,
2013-03-23 21:24:00,49.4,47.5,29.94,East,91,0.0,0.0,93,0.00,,---,0.28,0.00,VWS V14.01,2013-03-24 01:24:00,
2013-03-23 21:29:00,49.3,47.4,29.93,East,91,0.0,0.0,93,0.00,,---,0.28,0.00,VWS V14.01,2013-03-24 01:29:00,
2013-03-23 21:34:00,49.3,47.4,29.93,East,91,0.0,1.0,93,0.00,,---,0.28,0.00,VWS V14.01,2013-03-24 01:34:00,
2013-03-23 21:40:00,49.3,47.4,29.93,East,91,0.0,0.0,93,0.00,,---,0.28,0.00,VWS V14.01,2013-03-24 01:40:00,
2013-03-23 21:45:00,49.2,47.3,29.93,East,91,0.0,0.0,93,0.00,,---,0.28,0.00,VWS V14.01,2013-03-24 01:45:00,
2013-03-23 21:50:00,49.2,47.3,29.93,East,91,0.0,1.0,93,0.00,,---,0.28,0.00,VWS V14.01,2013-03-24 01:50:00,
2013-03-23 21:55:00,49.2,47.3,29.92,East,91,0.0,0.0,93,0.00,,---,0.28,0.00,VWS V14.01,2013-03-24 01:55:00,
2013-03-23 22:00:00,49.2,47.3,29.93,East,91,0.0,1.0,93,0.00,,---,0.28,0.00,VWS V14.01,2013-03-24 02:00:00,
2013-03-23 22:05:00,49.2,47.3,29.92,East,91,0.0,0.0,93,0.00,,---,0.28,0.00,VWS V14.01,2013-03-24 02:05:00,
2013-03-23 22:10:00,49.2,47.3,29.92,East,91,0.0,2.0,93,0.00,,---,0.28,0.00,VWS V14.01,2013-03-24 02:10:00,
2013-03-23 22:15:00,49.1,47.2,29.93,East,91,0.0,0.0,93,0.00,,---,0.28,0.00,VWS V14.01,2013-03-24 02:15:00,
2013-03-23 22:20:00,49.2,47.3,29.92,East,91,1.0,1.0,93,0.00,,---,0.28,0.00,VWS V14.01,2013-03-24 02:20:00,
2013-03-23 22:25:00,49.2,47.3,29.92,East,91,0.0,1.0,93,0.00,,---,0.28,0.00,VWS V14.01,2013-03-24 02:25:00,
2013-03-23 22:31:00,49.1,47.2,29.92,East,92,0.0,2.0,93,0.00,,---,0.28,0.00,VWS V14.01,2013-03-24 02:31:00,
2013-03-23 22:36:00,49.1,47.2,29.93,East,98,1.0,4.0,93,0.00,,---,0.28,0.00,VWS V14.01,2013-03-24 02:36:00,
2013-03-23 22:41:00,49.1,47.2,29.93,East,99,0.0,2.0,93,0.00,,---,0.28,0.00,VWS V14.01,2013-03-24 02:41:00,
2013-03-23 22:46:00,49.0,47.1,29.92,ESE,103,2.0,5.0,93,0.00,,---,0.28,0.00,VWS V14.01,2013-03-24 02:46:00,
2013-03-23 22:51:00,49.0,47.1,29.92,ESE,103,0.0,2.0,93,0.00,,---,0.28,0.00,VWS V14.01,2013-03-24 02:51:00,
2013-03-23 22:57:00,49.0,47.1,29.91,ESE,102,0.0,0.0,93,0.00,,---,0.28,0.00,VWS V14.01,2013-03-24 02:57:00,
2013-03-23 23:02:00,49.0,47.1,29.91,ESE,102,0.0,2.0,93,0.00,,---,0.28,0.00,VWS V14.01,2013-03-24 03:02:00,
2013-03-23 23:07:00,48.9,47.0,29.90,ESE,103,0.0,1.0,93,0.00,,---,0.28,0.00,VWS V14.01,2013-03-24 03:07:00,
2013-03-23 23:12:00,49.0,47.1,29.91,ESE,103,0.0,0.0,93,0.00,,---,0.28,0.00,VWS V14.01,2013-03-24 03:12:00,
2013-03-23 23:17:00,48.9,47.2,29.91,SE,136,0.0,0.0,94,0.00,,---,0.28,0.00,VWS V14.01,2013-03-24 03:17:00,
2013-03-23 23:23:00,48.9,47.2,29.91,SE,136,0.0,2.0,94,0.00,,---,0.28,0.00,VWS V14.01,2013-03-24 03:23:00,
2013-03-23 23:28:00,48.9,47.2,29.91,SE,135,1.0,2.0,94,0.00,,---,0.28,0.00,VWS V14.01,2013-03-24 03:28:00,
2013-03-23 23:33:00,49.0,47.3,29.91,SE,135,1.0,1.0,94,0.00,,---,0.28,0.00,VWS V14.01,2013-03-24 03:33:00,
2013-03-23 23:38:00,49.0,47.3,29.91,SE,135,2.0,4.0,94,0.00,,---,0.28,0.00,VWS V14.01,2013-03-24 03:38:00,
2013-03-23 23:43:00,49.0,47.3,29.91,SE,135,0.0,0.0,94,0.00,,---,0.28,0.00,VWS V14.01,2013-03-24 03:43:00,
2013-03-23 23:48:00,48.9,47.0,29.90,SE,135,0.0,0.0,93,0.00,,---,0.28,0.00,VWS V14.01,2013-03-24 03:48:00,
2013-03-23 23:53:00,49.0,47.1,29.90,SE,135,0.0,0.0,93,0.00,,---,0.28,0.00,VWS V14.01,2013-03-24 03:53:00,
2013-03-23 23:58:00,49.0,47.1,29.91,SE,135,0.0,2.0,93,0.00,,---,0.28,0.00,VWS V14.01,2013-03-24 03:58:00,